TimeEDT,TemperatureF,Dew PointF,Humidity,Sea Level PressureIn,VisibilityMPH,Wind Direction,Wind SpeedMPH,Gust SpeedMPH,PrecipitationIn,Events,Conditions,WindDirDegrees,DateUTC
12:04 AM,62.6,62.6,100,29.61,6.0,South,11.5,-,0.02,Rain-Thunderstorm,Light Rain,170,2013-04-20 04:04:00
12:12 AM,62.6,62.6,100,29.61,10.0,South,8.1,-,0.03,Rain,Light Rain,170,2013-04-20 04:12:00
12:51 AM,63.0,62.1,97,29.61,10.0,WNW,5.8,-,0.05,Rain,Light Rain,290,2013-04-20 04:51:00
12:56 AM,62.6,62.6,100,29.62,10.0,West,4.6,-,0.00,,Overcast,270,2013-04-20 04:56:00
1:51 AM,59.0,57.9,96,29.62,10.0,Variable,3.5,-,0.06,Rain,Light Rain,0,2013-04-20 05:51:00
2:00 AM,59.0,57.2,94,29.62,10.0,WNW,11.5,17.3,0.00,Rain,Light Rain,290,2013-04-20 06:00:00
2:20 AM,53.6,51.8,94,29.64,10.0,WNW,16.1,-,0.02,Rain,Light Rain,300,2013-04-20 06:20:00
2:51 AM,51.1,48.0,89,29.64,10.0,NNW,11.5,23.0,0.02,Rain,Light Rain,330,2013-04-20 06:51:00
3:12 AM,50.0,46.4,87,29.65,10.0,NW,9.2,-,0.00,Rain,Light Rain,320,2013-04-20 07:12:00
3:51 AM,48.9,45.0,86,29.65,10.0,WNW,10.4,-,0.01,Rain,Light Rain,300,2013-04-20 07:51:00
4:51 AM,46.0,44.1,93,29.68,5.0,WNW,9.2,-,0.06,Rain,Rain,290,2013-04-20 08:51:00
5:19 AM,46.4,44.6,93,29.69,5.0,WNW,6.9,-,0.05,Rain,Rain,290,2013-04-20 09:19:00
5:33 AM,46.4,44.6,93,29.69,4.0,NNW,10.4,-,0.08,Rain,Rain,330,2013-04-20 09:33:00
5:51 AM,44.1,41.0,89,29.68,8.0,NNW,15.0,20.7,0.10,Rain,Light Rain,340,2013-04-20 09:51:00
6:06 AM,42.8,39.2,87,29.69,7.0,NNW,11.5,-,0.01,Rain,Light Rain,330,2013-04-20 10:06:00
6:14 AM,42.8,39.2,87,29.71,8.0,NW,11.5,-,0.01,Rain,Light Rain,320,2013-04-20 10:14:00
6:51 AM,42.1,39.9,92,29.73,2.5,NNW,6.9,-,0.07,Rain,Light Rain,330,2013-04-20 10:51:00
6:59 AM,42.8,39.2,87,29.73,6.0,NW,8.1,-,0.00,Rain,Light Rain,320,2013-04-20 10:59:00
7:51 AM,43.0,37.9,82,29.78,10.0,WNW,9.2,-,0.00,Rain,Light Rain,300,2013-04-20 11:51:00
8:51 AM,45.0,39.0,80,29.78,10.0,WNW,8.1,-,0.00,,Mostly Cloudy,290,2013-04-20 12:51:00
9:51 AM,46.9,37.0,68,29.79,10.0,WNW,9.2,16.1,N/A,,Scattered Clouds,300,2013-04-20 13:51:00
10:51 AM,50.0,35.1,57,29.81,10.0,West,9.2,25.3,N/A,,Mostly Cloudy,270,2013-04-20 14:51:00
11:51 AM,52.0,28.9,41,29.83,10.0,West,17.3,27.6,N/A,,Partly Cloudy,260,2013-04-20 15:51:00
12:51 PM,52.0,30.0,43,29.85,10.0,SW,13.8,23.0,N/A,,Mostly Cloudy,230,2013-04-20 16:51:00
1:51 PM,53.1,28.0,38,29.86,10.0,West,11.5,21.9,N/A,,Mostly Cloudy,270,2013-04-20 17:51:00
2:51 PM,54.0,28.9,38,29.88,10.0,WNW,12.7,21.9,N/A,,Mostly Cloudy,290,2013-04-20 18:51:00
3:51 PM,55.0,24.1,30,29.89,10.0,West,17.3,34.5,N/A,,Mostly Cloudy,270,2013-04-20 19:51:00
4:51 PM,54.0,25.0,33,29.93,10.0,West,12.7,24.2,N/A,,Scattered Clouds,280,2013-04-20 20:51:00
5:51 PM,53.1,24.1,32,29.97,10.0,West,12.7,26.5,N/A,,Scattered Clouds,270,2013-04-20 21:51:00
6:51 PM,50.0,21.0,32,30.01,10.0,West,13.8,24.2,N/A,,Scattered Clouds,270,2013-04-20 22:51:00
7:51 PM,48.0,21.0,34,30.06,10.0,West,12.7,-,N/A,,Mostly Cloudy,280,2013-04-20 23:51:00
8:51 PM,45.0,21.0,39,30.12,10.0,WNW,13.8,19.6,N/A,,Partly Cloudy,300,2013-04-21 00:51:00
9:51 PM,43.0,19.9,40,30.16,10.0,WNW,15.0,20.7,N/A,,Clear,300,2013-04-21 01:51:00
10:51 PM,41.0,19.0,41,30.20,10.0,WNW,11.5,-,N/A,,Clear,300,2013-04-21 02:51:00
11:51 PM,37.9,19.0,47,30.22,10.0,West,9.2,-,N/A,,Clear,280,2013-04-21 03:51:00